星链-31565 (STARLINK-31565 )

导读

STARLINK-31565是美国太空探索技术公司星链卫星互联网项目的一颗卫星,于北京时间2024年3月25日发射入轨,是星链低轨星座组网部署的成员之一,该卫星主要服务于全球卫星互联网通信业务,为地面偏远地区用户等提供高速网络接入服务,助力星链全球覆盖网络的构建。

Basic Information
目录编号:
59323
目录名称:
STARLINK-31565
国际标识:
2024-057D
轨道中心:
EARTH
卫星名称:
星链-31565
卫星全名:
星链-31565 (STARLINK-31565 )
卫星状态:
在轨 (已飞行815 天)
发射日期:
2024-03-25 UTC
国别 :
美国 (US)
星等 :
--
Orbit Information
数据来源 国际轨道数据
星历时间: 2026-06-16T13:55:56+0800
1天前
查看轨道信息
半长轴: 6861.216km
偏心率: 0.0000899
轨道倾角: 43.001°
近地点辐角 272.621°
升交点赤经 358.135°
平近点角 87.454°
近地点: 482.462km
远地点: 483.696km
周期: 94.267分钟
每日圈数: 15.275703
Detailed Information
固有亮度:
5
最大亮度:
0.3
卫星平台:
Starlink v2.0 mini
覆盖范围:
全球
运营商:
太空探索技术公司
运营商所在国:
美国
制造商(研发单位):
太空探索技术公司
制造商所在国:
美国
使用方式:
暂无
Satellite Introduction
星链(Starlink)计划是由太空探索技术公司(SpaceX)提出的一个巨型低轨卫星互联网星座项目,计划在2019年至2024年间在太空搭建由约1.2万颗卫星组成的“星链”网络,其中1584颗将部署在地球上空550千米处的近地轨道,并从2020年开始工作。该卫星仍在工作。
2D Orbit Map
3D Orbit Map
Orbit Altitude Analysis Chart
Orbit Inclination Analysis Chart
Orbit Comprehensive Analysis Chart
View Comprehensive Chart